GW4718 Weather Reports


time (UTC)temp
F
wind
direction
speed
knots
gust
knots
rain 1hr
in
rain 24hr
in
rain mn
in
humidity
%
barometer
mb
20260502170330 49 237 1.7 8.7 0.00 0.00 0.00 51 1016.4
20260502164318 48 266 1.7 3.5 0.00 0.00 0.00 48 1016.7
20260502163814 47 95 2.6 3.5 0.00 0.00 0.00 48 1016.7
20260502163310 48 210 4.3 5.2 0.00 0.00 0.00 48 1016.7
20260502162808 48 306 0.9 1.7 0.00 0.00 0.00 50 1016.9
20260502162305 47 270 0.0 3.5 0.00 0.00 0.00 51 1016.8
20260502161801 47 226 1.7 2.6 0.00 0.00 0.00 50 1016.7
20260502161257 47 163 0.9 2.6 0.00 0.00 0.00 47 1017.0
20260502160755 47 165 0.9 6.1 0.00 0.00 0.00 48 1016.9
20260502160249 48 242 4.3 6.1 0.00 0.00 0.00 52 1016.8
20260502152217 47 266 0.9 5.2 0.00 0.00 0.00 52 1017.1
20260502151715 47 224 6.1 8.7 0.00 0.00 0.00 51 1017.2
20260502151212 48 224 1.7 2.6 0.00 0.00 0.00 48 1017.0
20260502150709 48 243 3.5 5.2 0.00 0.00 0.00 52 1016.9
20260502150205 48 67 0.0 2.6 0.00 0.00 0.00 51 1016.9
20260502140129 46 255 0.0 2.6 0.00 0.00 0.00 51 1016.8
20260502130554 44 108 0.9 7.8 0.00 0.00 0.00 62 1016.8
20260502123537 42 36 1.7 2.6 0.00 0.00 0.00 68 1016.7
20260502123034 42 21 2.6 7.0 0.00 0.00 0.00 65 1016.4
20260502122530 42 101 0.0 0.9 0.00 0.00 0.00 65 1016.7
20260502122028 42 55 1.7 2.6 0.00 0.00 0.00 66 1016.4
20260502121525 42 268 0.9 1.7 0.00 0.00 0.00 67 1016.4
20260502121022 42 82 3.5 5.2 0.00 0.00 0.00 69 1016.3
20260502120519 41 48 0.0 0.0 0.00 0.00 0.00 77 1016.5
20260502115513 40 272 0.0 0.0 0.00 0.00 0.00 81 1016.4
20260502115009 40 284 0.0 0.0 0.00 0.00 0.00 82 1016.7
20260502114506 40 273 0.0 0.9 0.00 0.00 0.00 82 1016.8
20260502114003 39 71 0.0 1.7 0.00 0.00 0.00 82 1016.7
20260502113500 39 136 0.0 0.0 0.00 0.00 0.00 85 1016.8
20260502112959 39 225 0.0 0.0 0.00 0.00 0.00 85 1016.5
20260502112456 38 221 0.0 0.9 0.00 0.00 0.00 83 1016.7
20260502111953 38 189 0.0 0.9 0.00 0.00 0.00 86 1016.7
20260502111451 39 180 0.0 0.9 0.00 0.00 0.00 85 1016.7
20260502110948 39 205 0.9 0.9 0.00 0.00 0.00 82 1016.8
20260502110446 39 122 0.9 0.9 0.00 0.00 0.00 80 1016.7
20260502105942 38 122 0.9 0.9 0.00 0.00 0.00 83 1016.8
20260502105440 38 253 0.9 0.9 0.00 0.00 0.00 85 1016.5
20260502104938 38 120 0.9 1.7 0.00 0.00 0.00 84 1016.7
20260502104435 38 181 0.9 1.7 0.00 0.00 0.00 86 1017.0
20260502103932 38 110 0.0 0.0 0.00 0.00 0.00 83 1017.0
20260502103430 38 98 0.0 0.0 0.00 0.00 0.00 82 1017.1
20260502102926 38 94 0.0 0.0 0.00 0.00 0.00 81 1017.3
20260502102423 38 120 0.9 0.9 0.00 0.00 0.00 81 1017.0
20260502101920 38 143 0.9 0.9 0.00 0.00 0.00 83 1017.0
20260502101419 39 253 0.9 1.7 0.00 0.00 0.00 79 1017.0
20260502100916 39 114 0.9 1.7 0.00 0.00 0.00 77 1016.9
20260502100411 39 78 1.7 2.6 0.00 0.00 0.00 78 1016.9
20260502091344 41 113 1.7 2.6 0.00 0.00 0.00 75 1017.0
20260502090842 41 75 0.0 0.0 0.00 0.00 0.00 71 1017.0
20260502090338 41 70 0.0 0.0 0.00 0.00 0.00 71 1017.0
20260502071233 40 146 0.9 0.9 0.00 0.00 0.00 82 1016.5
20260502070732 40 124 0.9 0.9 0.00 0.00 0.00 80 1016.7
20260502070229 42 128 0.0 0.9 0.00 0.00 0.00 77 1016.7
20260502065727 42 82 0.9 1.7 0.00 0.00 0.00 73 1016.5
20260502065225 42 123 0.9 0.9 0.00 0.00 0.00 75 1016.7
20260502064723 41 223 0.9 1.7 0.00 0.00 0.00 76 1016.7
20260502064220 42 259 0.9 1.7 0.00 0.00 0.00 75 1017.0
20260502063718 41 245 0.0 1.7 0.00 0.00 0.00 74 1016.7
20260502063216 42 112 0.9 1.7 0.00 0.00 0.00 75 1016.8
20260502062712 42 173 0.0 1.7 0.00 0.00 0.00 72 1016.8
20260502062210 42 183 0.9 1.7 0.00 0.00 0.00 73 1016.8
20260502061709 43 137 0.9 0.9 0.00 0.00 0.00 71 1016.9
20260502061205 43 151 0.9 2.6 0.00 0.00 0.00 70 1017.1
20260502060700 44 167 0.0 0.9 0.00 0.00 0.00 70 1016.9
20260502060157 44 313 0.9 1.7 0.00 0.00 0.00 67 1016.8
20260502055654 44 336 0.0 0.9 0.00 0.00 0.00 70 1016.9
20260502055152 44 166 1.7 7.0 0.00 0.00 0.00 70 1017.0
20260502054651 44 220 3.5 6.1 0.00 0.00 0.00 69 1016.9
20260502054148 44 184 0.9 2.6 0.00 0.00 0.00 68 1016.9
20260502053645 45 153 0.9 5.2 0.00 0.00 0.00 67 1016.9
20260502053142 45 148 3.5 7.0 0.00 0.00 0.00 69 1016.9
20260502052640 45 129 2.6 3.5 0.00 0.00 0.00 67 1016.9
20260502052138 45 156 0.0 3.5 0.00 0.00 0.00 67 1017.1
20260502051636 45 241 1.7 3.5 0.00 0.00 0.00 68 1017.1
20260502051134 46 208 1.7 2.6 0.00 0.00 0.00 69 1016.7
20260502050630 46 45 3.5 7.0 0.00 0.00 0.00 67 1016.7
20260502050127 46 153 0.9 3.5 0.00 0.00 0.00 70 1016.5
20260502045623 46 198 1.7 2.6 0.00 0.00 0.00 70 1016.9
20260502045121 46 203 2.6 7.8 0.00 0.00 0.00 70 1016.8
20260502044617 46 237 0.9 3.5 0.00 0.00 0.00 69 1016.9
20260502044114 46 191 0.9 5.2 0.00 0.00 0.00 73 1016.8
20260502043612 46 268 2.6 7.0 0.00 0.00 0.00 73 1016.7
20260502043108 46 330 0.9 2.6 0.00 0.00 0.00 75 1016.7
20260502042603 45 18 0.0 3.5 0.00 0.00 0.00 76 1016.7
20260502042101 45 123 0.0 0.9 0.00 0.00 0.00 76 1016.7
20260502041558 46 273 0.0 1.7 0.00 0.00 0.00 75 1016.7
20260502041055 47 224 1.7 9.6 0.00 0.00 0.00 70 1016.3
20260502040552 46 103 1.7 1.7 0.00 0.00 0.00 73 1016.3
20260502040049 46 82 1.7 1.7 0.00 0.00 0.00 75 1016.3
20260502035545 46 342 1.7 1.7 0.00 0.00 0.00 73 1016.2
20260502035043 46 65 0.9 2.6 0.00 0.00 0.00 74 1016.7
20260502034540 46 98 0.9 3.5 0.00 0.00 0.00 72 1016.7
20260502034038 47 172 0.0 1.7 0.00 0.00 0.00 72 1016.7
20260502033536 47 309 0.9 3.5 0.00 0.00 0.00 72 1016.4
20260502033033 47 179 5.2 7.0 0.00 0.00 0.00 71 1016.3
20260502032529 47 180 3.5 5.2 0.00 0.00 0.00 71 1016.5
20260502032026 46 114 1.7 3.5 0.00 0.00 0.00 71 1016.4
20260502031524 46 233 1.7 2.6 0.00 0.00 0.00 72 1016.3
20260502031022 46 305 0.0 3.5 0.00 0.00 0.00 72 1016.3
20260502030520 47 199 2.6 5.2 0.00 0.00 0.00 69 1016.4
20260502030017 47 183 5.2 7.0 0.00 0.00 0.00 70 1016.4
20260502025514 47 61 0.9 3.5 0.00 0.00 0.00 73 1016.1
20260502025013 47 241 0.9 1.7 0.00 0.00 0.00 70 1016.5
20260502024509 47 188 2.6 5.2 0.00 0.00 0.00 72 1016.3
20260502024008 47 266 6.1 7.8 0.00 0.00 0.00 73 1016.5
20260502023505 47 109 7.8 8.7 0.00 0.00 0.00 70 1016.4
20260502023002 48 12 0.9 3.5 0.00 0.00 0.00 71 1016.4
20260502022459 48 211 0.9 3.5 0.00 0.00 0.00 70 1016.4
20260502021956 47 195 1.7 2.6 0.00 0.00 0.00 73 1016.7
20260502021454 47 57 1.7 2.6 0.00 0.00 0.00 75 1016.4
20260502020950 47 20 0.0 0.9 0.00 0.00 0.00 77 1016.4
20260502020448 48 29 0.9 1.7 0.00 0.00 0.00 75 1016.2
20260502015944 48 73 0.9 1.7 0.00 0.00 0.00 74 1016.3
20260502015442 48 46 1.7 2.6 0.00 0.00 0.00 75 1016.4
20260502014939 48 22 1.7 1.7 0.00 0.00 0.00 73 1016.3
20260502014436 49 320 4.3 6.1 0.00 0.00 0.00 72 1016.0
20260502013932 49 349 1.7 2.6 0.00 0.00 0.00 73 1016.0
20260502013428 50 96 0.0 1.7 0.00 0.00 0.00 72 1015.9
20260502012924 50 193 6.1 8.7 0.00 0.00 0.00 71 1016.0
20260502012422 50 33 1.7 3.5 0.00 0.00 0.00 73 1015.7
20260502011919 50 345 0.9 2.6 0.00 0.00 0.00 73 1015.7
20260502011415 51 42 3.5 7.8 0.00 0.00 0.00 73 1015.6
20260502010913 51 29 1.7 9.6 0.00 0.00 0.00 71 1015.5
20260502010409 51 242 1.7 2.6 0.00 0.00 0.00 70 1015.4
20260502005906 52 270 0.9 1.7 0.00 0.00 0.00 68 1015.3
20260502005404 53 225 0.9 7.0 0.00 0.00 0.00 64 1015.3
20260502004901 53 189 2.6 3.5 0.00 0.00 0.00 63 1014.8
20260502004357 53 86 3.5 3.5 0.00 0.00 0.00 61 1014.5
20260502003854 52 353 0.0 1.7 0.00 0.00 0.00 64 1014.3
20260502003351 53 45 3.5 3.5 0.00 0.00 0.00 62 1014.3
20260502002848 53 38 4.3 5.2 0.00 0.00 0.00 60 1013.9
20260502002345 53 330 0.0 1.7 0.00 0.00 0.00 59 1014.1
20260502001842 54 21 1.7 2.6 0.00 0.00 0.00 59 1013.8
20260502001340 54 332 3.5 6.1 0.00 0.00 0.00 57 1013.8
20260502000837 54 24 3.5 7.8 0.00 0.00 0.00 56 1013.5
20260502000335 54 39 8.7 8.7 0.00 0.00 0.00 56 1013.6
20260501235831 55 259 1.7 5.2 0.00 0.00 0.00 52 1013.6
20260501235327 55 259 1.7 5.2 0.00 0.00 0.00 52 1013.6
20260501234822 55 165 0.9 1.7 0.00 0.00 0.00 51 1013.3
20260501234320 56 24 1.7 12.2 0.00 0.00 0.00 50 1013.2
20260501233818 56 285 2.6 6.1 0.00 0.00 0.00 49 1013.2
20260501233315 56 93 0.0 1.7 0.00 0.00 0.00 48 1013.2
20260501232811 56 305 3.5 5.2 0.00 0.00 0.00 46 1013.3
20260501232308 57 272 4.3 8.7 0.00 0.00 0.00 47 1012.9
20260501231806 57 249 1.7 2.6 0.00 0.00 0.00 45 1013.0
20260501231304 59 189 1.7 5.2 0.00 0.00 0.00 42 1012.8
20260501230802 59 209 1.7 3.5 0.00 0.00 0.00 41 1012.6
20260501230300 59 130 4.3 5.2 0.00 0.00 0.00 42 1012.7
20260501225757 60 234 2.6 6.1 0.00 0.00 0.00 39 1012.6
20260501225255 60 269 0.9 3.5 0.00 0.00 0.00 37 1012.4
20260501224751 59 214 2.6 3.5 0.00 0.00 0.00 37 1012.5
20260501224248 60 209 5.2 7.0 0.00 0.00 0.00 36 1012.3
20260501223744 61 233 3.5 7.8 0.00 0.00 0.00 34 1012.3
20260501223241 61 233 3.5 7.8 0.00 0.00 0.00 34 1012.3
20260501222737 62 220 2.6 7.8 0.00 0.00 0.00 34 1012.0
20260501222234 63 195 2.6 5.2 0.00 0.00 0.00 37 1011.9
20260501221731 64 167 4.3 7.8 0.00 0.00 0.00 31 1011.9
20260501221228 64 85 6.1 7.8 0.00 0.00 0.00 32 1011.6
20260501220726 64 231 4.3 7.8 0.00 0.00 0.00 30 1011.8
20260501220223 65 265 3.5 8.7 0.00 0.00 0.00 31 1011.8
20260501215720 63 188 9.6 13.0 0.00 0.00 0.00 32 1012.0
20260501215215 64 195 4.3 7.8 0.00 0.00 0.00 33 1011.6
20260501214710 64 269 4.3 13.9 0.00 0.00 0.00 32 1011.5
20260501214207 63 155 3.5 9.6 0.00 0.00 0.00 33 1011.6
20260501213703 63 215 5.2 8.7 0.00 0.00 0.00 29 1011.6
20260501213159 63 224 7.8 9.6 0.00 0.00 0.00 31 1011.4
20260501212656 62 207 4.3 6.1 0.00 0.00 0.00 35 1011.4
20260501212153 63 245 0.9 6.1 0.00 0.00 0.00 33 1011.4
20260501211649 63 190 2.6 5.2 0.00 0.00 0.00 34 1011.5
20260501211147 64 242 5.2 7.0 0.00 0.00 0.00 29 1011.5
20260501210643 63 157 0.9 2.6 0.00 0.00 0.00 33 1011.2
20260501210140 64 250 4.3 6.1 0.00 0.00 0.00 32 1011.4
20260501205636 62 255 5.2 7.0 0.00 0.00 0.00 34 1011.7
20260501205134 62 226 2.6 2.6 0.00 0.00 0.00 35 1011.4
20260501204630 62 240 0.0 2.6 0.00 0.00 0.00 36 1011.5
20260501204126 62 275 1.7 5.2 0.00 0.00 0.00 31 1011.2
20260501203623 62 241 0.9 1.7 0.00 0.00 0.00 35 1011.2
20260501203121 62 227 2.6 3.5 0.00 0.00 0.00 36 1011.4
20260501202618 62 215 0.9 3.5 0.00 0.00 0.00 34 1011.4
20260501202114 62 197 5.2 8.7 0.00 0.00 0.00 34 1011.4
20260501201611 62 90 4.3 11.3 0.00 0.00 0.00 31 1011.2
20260501201107 63 208 5.2 9.6 0.00 0.00 0.00 33 1011.5
20260501200605 63 255 3.5 7.8 0.00 0.00 0.00 33 1011.5
20260501195600 65 188 7.0 14.8 0.00 0.00 0.00 31 1011.4
20260501195055 64 276 3.5 6.1 0.00 0.00 0.00 33 1011.5
20260501194550 64 244 5.2 7.0 0.00 0.00 0.00 30 1011.8
20260501194047 63 223 5.2 11.3 0.00 0.00 0.00 31 1011.7
20260501193544 65 159 5.2 9.6 0.00 0.00 0.00 30 1011.9
20260501193043 66 253 8.7 12.2 0.00 0.00 0.00 33 1011.7
20260501192539 64 185 2.6 7.8 0.00 0.00 0.00 36 1011.6
20260501192037 64 156 7.0 9.6 0.00 0.00 0.00 36 1011.8
20260501191534 63 351 1.7 2.6 0.00 0.00 0.00 37 1011.7
20260501191031 62 179 2.6 5.2 0.00 0.00 0.00 37 1012.1
20260501190526 62 223 1.7 2.6 0.00 0.00 0.00 37 1012.3
20260501190022 61 227 1.7 7.0 0.00 0.00 0.00 35 1012.2
20260501185519 61 254 1.7 5.2 0.00 0.00 0.00 39 1012.2
20260501185015 62 229 5.2 7.0 0.00 0.00 0.00 39 1012.4
20260501184512 62 173 2.6 5.2 0.00 0.00 0.00 36 1012.6
20260501184011 63 259 4.3 6.1 0.00 0.00 0.00 33 1012.5
20260501183509 62 244 4.3 13.0 0.00 0.00 0.00 36 1012.6
20260501183005 61 209 4.3 7.8 0.00 0.00 0.00 36 1012.6
20260501182502 63 254 3.5 7.0 0.00 0.00 0.00 41 1012.9
20260501181958 62 270 0.9 3.5 0.00 0.00 0.00 45 1012.9
20260501181456 61 214 5.2 6.1 0.00 0.00 0.00 41 1012.9
20260501180953 61 239 2.6 7.0 0.00 0.00 0.00 43 1012.9
20260501180450 60 189 4.3 6.1 0.00 0.00 0.00 43 1012.9
20260501175946 60 256 5.2 7.0 0.00 0.00 0.00 37 1013.2
20260501175443 61 204 4.3 7.8 0.00 0.00 0.00 38 1013.2